{"data":{"norad_id":67603,"epoch":"2026-09-19T08:08:34.717344Z","epoch_age_seconds":169244,"freshness":"FRESH","line1":"1 67603U 26018Q   26262.33929071  .00016301  00000+0  50601-3 0  9996","line2":"2 67603  97.2851 325.8332 0000392  79.1971 280.9315 15.33454240 37010","mean_motion":15.3345424,"eccentricity":3.92e-5,"inclination_deg":97.2851,"raan_deg":325.8332,"arg_perigee_deg":79.1971,"mean_anomaly_deg":280.9315,"bstar":0.00050601,"rev_number":3701,"period_min":93.905638814498,"perigee_km":465.2474116919,"apogee_km":465.78395406224,"semimajor_km":6843.6526828771,"source":"CELESTRAK","updated_at":"2026-09-20T09:00:43.605382Z"}}